Georgetown, TX (78633)

8:46 PM CDT on September 03, 2015 (GMT -0500)
Serenada West | | Change Station
CLOSE
Current Station
Personal Weather Station
Location: Georgetown, TX
Elevation: 790 ft
Nearby Weather Stations

Elev 790 ft 30.69 °N, 97.70 °W | Updated 2 seconds ago

Clear
Clear
83.3 °F
Feels Like 81 °F
N
3.4
Wind Variable Wind from East
Gusts 6.5 mph

Today
High -- | Low -- °F
--% Chance of Precip.
Yesterday
High -- | Low -- °F
Precip. -- in
7:08 AM 7:51 PM
Waning Gibbous, 65% visible
Pressure 29.86 in
Visibility 10.0 miles
Clouds Clear
Heat Index 81 °F
Dew Point 18 °F
Humidity 9%
Rainfall 0.00 in
Snow Depth Not available.
UV 0 out of 12
Pollen 7.20 out of 12
Air Quality Not available.
Flu Activity Not available.
METAR KGTU 040050Z 11006KT 10SM CLR 31/19 A2986
Pressure 29.86 in
Visibility 10.0 miles
Clouds Clear
Heat Index 81 °F
Dew Point 18 °F
Humidity 9%
Rainfall 0.00 in
Snow Depth Not available.
UV 0 out of 12
Pollen 7.20 out of 12
Air Quality Not available.
Flu Activity Not available.
METAR KGTU 040050Z 11006KT 10SM CLR 31/19 A2986

10-Day Weather Forecast

×

Almanac

Astronomy

Sep. 03, 2015 Rise Set
Actual Time
Civil Twilight
Nautical Twilight
Astronomical Twilight
Moon
Length of Visible Light
Length of Day
Tomorrow will be .
, % of the Moon is Illuminated

Today's Extremes

State Highs State Lows

Community

WunderPhotos

Upload Photos

1,852,088 photos uploaded!

WunderBlogs® & News

Nearby

Air Quality

  Air Quality AQ Index Pollutant
Not available.

Snow Depth

Station Depth Elevation

Earthquake Activity

City Distance Mag. Time & Date
Minimum magnitude displayed is 2.5.

Coastal Water Temperatures

Place Temperature

Stations

Nearby Weather Stations

Station Location Temp. Windchill Dew Point Humidity Wind Precip. Elev Updated Type